{"data":{"norad_id":50474,"epoch":"2026-05-25T02:34:50.768256Z","epoch_age_seconds":66045,"freshness":"FRESH","line1":"1 50474U 21132F   26145.10753204 -.00000022  00000+0 -89441-4 0  9994","line2":"2 50474  87.9169 340.0346 0002074  89.4712 270.6658 13.18687668218555","mean_motion":13.18687668,"eccentricity":0.0002074,"inclination_deg":87.9169,"raan_deg":340.0346,"arg_perigee_deg":89.4712,"mean_anomaly_deg":270.6658,"bstar":-8.9441e-5,"rev_number":21855,"period_min":109.19947421545,"perigee_km":1188.1671681406,"apogee_km":1191.3063221701,"semimajor_km":7567.8737451553,"source":"CELESTRAK","updated_at":"2026-05-25T13:38:22.528764Z"}}